This is the latest recevied weather packets stored in our database for station/object KC0UFP. If no packets are shown the sender has not sent any weather packets the latest 10 day(s).
| Time | Temp. | Humidity | Pressure | Rain* | Wind** | Luminosity | Snow |
|---|---|---|---|---|---|---|---|
| 1777656381 | 15.56° C | 40% | 1017.9 hPa | 0 mm | - | 1047 W/m² | - |
| 1777656076 | 15.56° C | 38% | 1018.2 hPa | 0 mm | - | 1049 W/m² | - |
| 1777655773 | 15.56° C | 39% | 1018.1 hPa | 0 mm | - | 985 W/m² | - |
| 1777655470 | 16.11° C | 40% | 1018.1 hPa | 0 mm | - | 695 W/m² | - |
| 1777655167 | 16.67° C | 40% | 1017.9 hPa | 0 mm | - | 1024 W/m² | - |
| 1777654864 | 15.56° C | 42% | 1018 hPa | 0 mm | - | 1020 W/m² | - |
| 1777654561 | 16.11° C | 38% | 1018.3 hPa | 0 mm | - | 1013 W/m² | - |
| 1777653956 | 15.56° C | 38% | 1018.1 hPa | 0 mm | - | 970 W/m² | - |
| 1777653653 | 15° C | 40% | 1018.2 hPa | 0 mm | - | 987 W/m² | - |
| 1777653349 | 15.56° C | 42% | 1018.1 hPa | 0 mm | - | 934 W/m² | - |
| 1777653046 | 16.11° C | 38% | 1018.3 hPa | 0 mm | - | 995 W/m² | - |
| 1777652439 | 15.56° C | 43% | 1018.6 hPa | 0 mm | - | 879 W/m² | - |
| 1777651833 | 15.56° C | 43% | 1018.6 hPa | 0 mm | - | 730 W/m² | - |
| 1777651530 | 15° C | 43% | 1018.5 hPa | 0 mm | - | 849 W/m² | - |
| 1777651227 | 15° C | 44% | 1018.7 hPa | 0 mm | - | 851 W/m² | - |
| 1777650923 | 15.56° C | 46% | 1018.6 hPa | 0 mm | - | 925 W/m² | - |
| 1777650621 | 15.56° C | 44% | 1018.8 hPa | 0 mm | - | 811 W/m² | - |
| 1777650015 | 15° C | 42% | 1018.7 hPa | 0 mm | - | 784 W/m² | - |
| 1777649713 | 15° C | 44% | 1018.7 hPa | 0 mm | - | 858 W/m² | - |
| 1777649409 | 15° C | 44% | 1018.5 hPa | 0 mm | - | 752 W/m² | - |
| 1777649106 | 15° C | 42% | 1018.7 hPa | 0 mm | - | 714 W/m² | - |
| 1777648804 | 15° C | 44% | 1018.8 hPa | 0 mm | - | 755 W/m² | - |
| 1777648500 | 15° C | 45% | 1018.6 hPa | 0 mm | - | 762 W/m² | - |
| 1777648196 | 15° C | 45% | 1018.3 hPa | 0 mm | - | 743 W/m² | - |
| 1777647892 | 15° C | 43% | 1018.8 hPa | 0 mm | - | 720 W/m² | - |
* Rain latest hour (hover to see other rain measurements)
** Current wind speed in m/s (hover to see current wind gust speed)